WMT551 EGGW-LROP

Flight info

Callsign WMT551
Flight time N/A
Altitude 39000
Route MATCH2C MATCH Q295 BRAIN M197 REDFA DCT TACHA DCT SUSET DCT OTMEC DCT KUMER DCT OMELO DCT GOXGE DCT DITAX DCT TOSVI TOSVI1E
Aircraft A320/M-SDE2E3FGHIRWXY/L

Departure

Time N/A
Airport London Luton Airport (EGGW)

Arrival

Time 2026-04-30 18:58
Airport Bucharest Henri Coandă International Airport (LROP)
Time Latitude Longitude Altitude Speed Heading
2026-04-30 17:39 49.90130 15.68442 39399 ft 457 kts 125°
2026-04-30 17:42 49.69561 16.03994 39392 ft 459 kts 126°
2026-04-30 17:43 49.58869 16.22283 39398 ft 458 kts 126°
2026-04-30 17:44 49.46040 16.44054 39379 ft 458 kts 126°
2026-04-30 17:47 49.26731 16.76483 39371 ft 458 kts 127°
2026-04-30 17:48 49.11649 17.01533 39362 ft 458 kts 127°
2026-04-30 17:50 48.94268 17.30123 39365 ft 460 kts 128°
2026-04-30 17:52 48.81121 17.51501 39362 ft 462 kts 128°
2026-04-30 17:54 48.61327 17.83394 39352 ft 464 kts 129°
2026-04-30 17:56 48.43591 18.11643 39341 ft 464 kts 129°
2026-04-30 17:58 48.30214 18.32746 39331 ft 464 kts 130°
2026-04-30 18:00 48.12329 18.60694 39323 ft 465 kts 130°
2026-04-30 18:01 48.01098 18.78092 39324 ft 465 kts 130°
2026-04-30 18:02 47.87579 18.98880 39320 ft 467 kts 131°
2026-04-30 18:04 47.73955 19.19663 39323 ft 468 kts 131°
2026-04-30 18:06 47.55686 19.47275 39325 ft 470 kts 132°
2026-04-30 18:08 47.39632 19.71297 39331 ft 470 kts 132°
2026-04-30 18:10 47.21186 19.98628 39344 ft 469 kts 133°
2026-04-30 18:11 47.05037 20.22324 39345 ft 469 kts 133°
2026-04-30 18:13 46.93461 20.39177 39334 ft 469 kts 133°
2026-04-30 18:14 46.81859 20.55959 39319 ft 469 kts 134°
2026-04-30 18:15 46.67917 20.75986 39295 ft 470 kts 134°
2026-04-30 18:16 46.58560 20.89340 39313 ft 471 kts 134°
2026-04-30 18:17 46.53880 20.95998 39307 ft 471 kts 134°
2026-04-30 18:18 46.46874 21.05943 39283 ft 472 kts 135°
2026-04-30 18:18 46.42171 21.12599 39284 ft 472 kts 135°
2026-04-30 18:19 46.37449 21.19228 39299 ft 473 kts 136°
2026-04-30 18:19 46.32530 21.25571 39301 ft 473 kts 137°
2026-04-30 18:20 46.27607 21.31924 39300 ft 474 kts 137°
2026-04-30 18:20 46.22689 21.38264 39291 ft 474 kts 137°
2026-04-30 18:21 46.17785 21.44554 39291 ft 475 kts 138°
2026-04-30 18:21 46.12839 21.50878 39290 ft 475 kts 138°
2026-04-30 18:22 46.07884 21.57196 39292 ft 475 kts 138°
2026-04-30 18:22 46.00429 21.66673 39299 ft 476 kts 138°
2026-04-30 18:23 45.95453 21.72979 39296 ft 477 kts 138°
2026-04-30 18:23 45.90469 21.79279 39295 ft 477 kts 139°
2026-04-30 18:24 45.83017 21.88671 39299 ft 477 kts 139°
2026-04-30 18:25 45.78023 21.94945 39293 ft 477 kts 139°
2026-04-30 18:25 45.70522 22.04339 39296 ft 477 kts 139°
2026-04-30 18:26 45.63023 22.13698 39297 ft 477 kts 139°
2026-04-30 18:27 45.55550 22.22988 39302 ft 476 kts 139°
2026-04-30 18:28 45.48432 22.32848 39292 ft 476 kts 126°
2026-04-30 18:28 45.44069 22.45421 39299 ft 474 kts 107°
2026-04-30 18:29 45.40192 22.61714 39299 ft 474 kts 108°
2026-04-30 18:30 45.35890 22.79502 39318 ft 476 kts 108°
2026-04-30 18:31 45.32633 22.92881 39322 ft 478 kts 108°
2026-04-30 18:32 45.29357 23.06259 39339 ft 478 kts 108°
2026-04-30 18:33 45.26072 23.19593 39347 ft 479 kts 108°
2026-04-30 18:33 45.22752 23.32993 39148 ft 481 kts 109°
2026-04-30 18:34 45.21635 23.37482 38600 ft 482 kts 109°
2026-04-30 18:34 45.19384 23.46507 36948 ft 489 kts 109°
2026-04-30 18:34 45.18240 23.51079 36139 ft 491 kts 109°
2026-04-30 18:35 45.17100 23.55625 35377 ft 492 kts 109°
2026-04-30 18:35 45.15953 23.60194 34617 ft 493 kts 109°
2026-04-30 18:35 45.14796 23.64790 33808 ft 493 kts 109°
2026-04-30 18:36 45.12500 23.73874 32234 ft 492 kts 109°
2026-04-30 18:36 45.11346 23.78427 31498 ft 490 kts 108°
2026-04-30 18:36 45.09068 23.87387 30349 ft 479 kts 108°
2026-04-30 18:37 45.07945 23.91791 29756 ft 473 kts 108°
2026-04-30 18:37 45.06845 23.96096 29207 ft 466 kts 108°
2026-04-30 18:37 45.05761 24.00333 28650 ft 459 kts 108°
2026-04-30 18:37 45.04687 24.04526 28091 ft 454 kts 108°
2026-04-30 18:38 45.03614 24.08706 27544 ft 448 kts 108°
2026-04-30 18:38 45.02556 24.12816 26991 ft 443 kts 107°
2026-04-30 18:38 45.01506 24.16892 26451 ft 438 kts 107°
2026-04-30 18:38 45.00467 24.20919 25908 ft 433 kts 107°
2026-04-30 18:39 44.99455 24.24834 25376 ft 429 kts 107°
2026-04-30 18:39 44.98451 24.28713 24842 ft 425 kts 107°
2026-04-30 18:39 44.97477 24.32468 24303 ft 423 kts 107°
2026-04-30 18:39 44.96467 24.36351 23730 ft 420 kts 107°
2026-04-30 18:40 44.95479 24.40146 23211 ft 414 kts 107°
2026-04-30 18:40 44.94509 24.43869 22685 ft 408 kts 106°
2026-04-30 18:40 44.93533 24.47606 22162 ft 403 kts 106°
2026-04-30 18:40 44.92568 24.51301 21637 ft 399 kts 106°
2026-04-30 18:41 44.91615 24.54946 21119 ft 394 kts 106°
2026-04-30 18:41 44.90667 24.58562 20593 ft 391 kts 107°
2026-04-30 18:41 44.89726 24.62150 20083 ft 387 kts 107°
2026-04-30 18:41 44.88796 24.65691 19561 ft 384 kts 107°
2026-04-30 18:42 44.87868 24.69217 19052 ft 381 kts 107°
2026-04-30 18:42 44.86037 24.76163 17989 ft 375 kts 108°
2026-04-30 18:42 44.85132 24.79596 17480 ft 371 kts 108°
2026-04-30 18:45 44.76496 25.12030 12555 ft 338 kts 109°
2026-04-30 18:45 44.75644 25.15094 12090 ft 334 kts 112°
2026-04-30 18:45 44.74543 25.18011 11623 ft 332 kts 121°
2026-04-30 18:46 44.73395 25.20469 11195 ft 330 kts 122°
2026-04-30 18:46 44.72151 25.23161 10751 ft 327 kts 121°
2026-04-30 18:46 44.70941 25.25798 10602 ft 314 kts 121°
2026-04-30 18:46 44.69780 25.28327 10477 ft 301 kts 121°
2026-04-30 18:47 44.68659 25.30766 10181 ft 296 kts 121°
2026-04-30 18:47 44.67551 25.33174 9893 ft 289 kts 121°
2026-04-30 18:47 44.66466 25.35524 9754 ft 287 kts 121°
2026-04-30 18:47 44.65452 25.37718 9453 ft 293 kts 121°
2026-04-30 18:48 44.64421 25.39949 9089 ft 294 kts 121°
2026-04-30 18:48 44.63323 25.42317 8837 ft 287 kts 121°
2026-04-30 18:48 44.62242 25.44651 8463 ft 283 kts 120°
2026-04-30 18:48 44.61172 25.46960 8071 ft 281 kts 120°
2026-04-30 18:49 44.60118 25.49233 7698 ft 279 kts 120°
2026-04-30 18:49 44.59064 25.51505 7321 ft 276 kts 120°
2026-04-30 18:49 44.58020 25.53754 6954 ft 274 kts 120°
2026-04-30 18:49 44.56986 25.55979 6585 ft 271 kts 120°
2026-04-30 18:50 44.55963 25.58181 6204 ft 269 kts 119°
2026-04-30 18:50 44.54945 25.60369 5834 ft 266 kts 119°
2026-04-30 18:50 44.53939 25.62537 5459 ft 263 kts 117°
2026-04-30 18:50 44.53287 25.64870 5063 ft 255 kts 96°
2026-04-30 18:51 44.53291 25.67299 4671 ft 249 kts 81°
2026-04-30 18:51 44.53507 25.69715 4297 ft 247 kts 81°
2026-04-30 18:51 44.53706 25.72088 3918 ft 245 kts 81°
2026-04-30 18:51 44.53897 25.74461 3552 ft 243 kts 82°
2026-04-30 18:52 44.54081 25.76788 3324 ft 235 kts 82°
2026-04-30 18:52 44.54255 25.79005 3220 ft 223 kts 82°
2026-04-30 18:52 44.54469 25.81109 3117 ft 213 kts 81°
2026-04-30 18:52 44.54623 25.83115 3039 ft 202 kts 82°
2026-04-30 18:53 44.54769 25.85015 2905 ft 195 kts 82°
2026-04-30 18:53 44.54908 25.86870 2809 ft 183 kts 82°
2026-04-30 18:53 44.55037 25.88582 2685 ft 174 kts 81°
2026-04-30 18:53 44.55162 25.90246 2566 ft 167 kts 82°
2026-04-30 18:54 44.55279 25.91803 2452 ft 155 kts 81°
2026-04-30 18:54 44.55372 25.93055 2285 ft 142 kts 81°
2026-04-30 18:54 44.55470 25.94362 2120 ft 128 kts 81°
2026-04-30 18:54 44.55566 25.95618 1970 ft 131 kts 81°
2026-04-30 18:55 44.55660 25.96881 1809 ft 130 kts 81°
2026-04-30 18:55 44.55852 25.99431 1481 ft 133 kts 82°
2026-04-30 18:55 44.55944 26.00676 1320 ft 123 kts 82°
2026-04-30 18:56 44.56128 26.03114 964 ft 128 kts 82°
2026-04-30 18:56 44.56221 26.04361 796 ft 130 kts 82°
2026-04-30 18:56 44.56310 26.05576 622 ft 130 kts 83°
2026-04-30 18:57 44.56494 26.08066 323 ft 128 kts 82°
2026-04-30 18:57 44.56561 26.08948 317 ft 81 kts 84°
2026-04-30 18:57 44.56605 26.09526 317 ft 52 kts 84°
2026-04-30 18:58 44.56669 26.10378 317 ft 37 kts 84°
2026-04-30 18:58 44.56691 26.10675 313 ft 12 kts 84°
2026-04-30 18:58 44.56727 26.10764 315 ft 10 kts
2026-04-30 18:59 44.56871 26.10745 315 ft 11 kts 355°
2026-04-30 19:00 44.57040 26.10621 316 ft 6 kts 298°
2026-04-30 19:00 44.57062 26.10558 316 ft 8 kts 291°
2026-04-30 19:00 44.57056 26.10372 316 ft 11 kts 263°
2026-04-30 19:01 44.57038 26.10122 317 ft 14 kts 264°
2026-04-30 19:01 44.57025 26.09977 317 ft 16 kts 264°
2026-04-30 19:02 44.56995 26.09820 317 ft 6 kts 188°
2026-04-30 19:02 44.56934 26.09827 317 ft 0 kts 176°
2026-04-30 19:03 44.56926 26.09828 316 ft 0 kts 173°
2026-04-30 19:09 44.56927 26.09828 317 ft 0 kts 173°